Location: Unspecified
(0.0000°N, 0.0000°E)
Time: 22:55:06
(UTC+00:00)

Tiros 1 despin weight - All Passes

Search period start: 19 November 2019 00:00
Search period end: 29 November 2019 00:00
Orbit: 594 x 642 km, 48.2° (Epoch: 18 November)

Date Brightness Start Highest point End Pass type
(mag) Time Alt. Az. Time Alt. Az. Time Alt. Az.
19 Nov - 09:03:16 10° S 09:06:38 20° SE 09:09:55 10° E daylight
19 Nov - 10:44:13 10° WSW 10:48:00 27° NW 10:51:43 10° N daylight
19 Nov - 21:10:31 10° NNW 21:14:42 34° NE 21:18:56 10° ESE night (unlit)
19 Nov - 22:52:56 10° W 22:56:07 18° SW 22:59:21 10° S night (unlit)
20 Nov - 09:18:46 10° SSW 09:23:09 56° SE 09:27:28 10° NE daylight
20 Nov - 21:26:35 10° NW 21:31:12 85° SW 21:35:53 10° SE night (unlit)
21 Nov - 07:56:34 10° SSE 07:58:12 12° SE 07:59:50 10° ESE daylight
21 Nov - 09:35:20 10° SW 09:39:39 49° NW 09:43:55 10° NNE daylight
21 Nov - 20:02:58 10° N 20:06:19 20° NE 20:09:42 10° E night (unlit)
21 Nov - 21:43:38 10° WNW 21:47:43 31° SW 21:51:51 10° SSE night (unlit)
22 Nov - 08:10:49 10° SSW 08:14:48 31° SE 08:18:44 10° ENE daylight
22 Nov - 09:53:06 10° W 09:56:10 18° NW 09:59:12 10° N daylight
22 Nov - 20:18:22 10° NNW 20:22:50 52° NE 20:27:21 10° SE night (unlit)
22 Nov - 22:02:30 10° WSW 22:04:18 12° SW 22:06:09 10° SSW night (unlit)
23 Nov - 08:26:49 10° SW 08:31:19 89° SE 08:35:44 10° NE daylight
23 Nov - 18:56:31 10° NNE 18:57:54 11° NE 18:59:18 10° ENE visible
23 Nov - 20:34:51 10° NW 20:39:19 55° SW 20:43:53 10° SSE night (unlit)
24 Nov - 07:03:19 10° S 07:06:25 18° SE 07:09:28 10° E daylight
24 Nov - 08:43:48 10° WSW 08:47:48 32° NW 08:51:45 10° NNE daylight
24 Nov - 19:10:30 10° N 19:14:28 29° NE 19:18:29 10° ESE visible
24 Nov - 20:52:25 10° W 20:55:52 21° SW 20:59:22 10° S night (unlit)
25 Nov - 07:18:36 10° SSW 07:22:58 48° SE 07:27:15 10° NE daylight
25 Nov - 09:02:37 10° WNW 09:04:21 12° NW 09:06:04 10° NNW daylight
25 Nov - 19:26:24 10° NW 19:30:58 82° NE 19:35:36 10° SE visible
26 Nov - 05:57:30 10° SE 05:57:59 10° SE 05:58:27 10° SE daylight
26 Nov - 07:35:01 10° SW 07:39:27 58° NW 07:43:50 10° NNE daylight
26 Nov - 18:03:09 10° N 18:06:05 17° NE 18:09:03 10° E daylight
26 Nov - 19:43:17 10° WNW 19:47:28 35° SW 19:51:43 10° SSE visible
27 Nov - 06:10:44 10° S 06:14:35 27° SE 06:18:23 10° ENE daylight
27 Nov - 07:52:32 10° W 07:55:58 21° NW 07:59:21 10° N daylight
27 Nov - 18:18:17 10° NNW 18:22:36 44° NE 18:27:00 10° ESE visible
27 Nov - 20:01:40 10° W 20:04:03 14° SW 20:06:27 10° SSW visible
28 Nov - 06:26:33 10° SW 06:31:07 76° SE 06:35:34 10° NE daylight
28 Nov - 18:34:36 10° NW 18:39:05 65° SW 18:43:40 10° SSE visible
